Location: Newark
(28.1667°N, 17.3333°W)
Time: 01:58:16
(UTC+00:00)

ISS - Visible Passes

Search period start: 23 April 2019 00:00
Search period end: 03 May 2019 00:00
Orbit: 408 x 410 km, 51.6° (Epoch: 23 April)

Date Brightness Start Highest point End Pass type
(mag) Time Alt. Az. Time Alt. Az. Time Alt. Az.
23 Apr -0.9 05:56:22 10° SSE 05:58:00 13° SE 05:59:39 10° E visible
25 Apr -2.8 05:49:36 10° SSW 05:52:45 44° SE 05:55:55 10° ENE visible
26 Apr -1.6 05:00:56 17° SSE 05:02:03 20° SE 05:04:32 10° ENE visible
27 Apr -3.4 05:45:18 17° WSW 05:47:36 47° NW 05:50:48 10° NNE visible
28 Apr -3.8 04:56:45 72° SE 04:56:46 72° SE 05:00:04 10° NE visible
29 Apr -0.8 04:08:07 15° ENE 04:08:07 15° ENE 04:08:56 10° ENE visible
29 Apr -1.7 05:40:52 12° WNW 05:42:36 17° NW 05:44:49 10° N visible
30 Apr -2.4 04:52:08 30° NNW 04:52:08 30° NNW 04:54:36 10° NNE visible
01 May -0.7 04:03:18 15° NE 04:03:18 15° NE 04:04:00 10° NE visible
02 May -1.1 04:47:07 12° NNW 04:47:07 12° NNW 04:48:04 10° N visible
